Weather WX

World > North America > United States > Pennsylvania

Blakely, Pennsylvania Regional Weather

Lat: 41.49N, Lon: 75.6W
Wx Zone: PAZ044
Warning FLW WEATHER ALERT - FLASH FLOOD WATCH (More Info. Click Here) Warning
Feedback

Blakely, PA Regional Weather

Expires:201906201200;;781885
ASUS41 KPHI 201112
RWRPHI

REGIONAL WEATHER ROUNDUP
NATIONAL WEATHER SERVICE MOUNT HOLLY NJ
700 AM EDT THU JUN 20 2019

NOTE:  "FAIR" INDICATES FEW OR NO CLOUDS BELOW 12,000 FEET WITH NO
SIGNIFICANT WEATHER AND/OR OBSTRUCTIONS TO VISIBILITY.

 * = STATION DOES NOT REPORT PRECIPITATION (E.G. RAIN, SNOW, ETC.) 
        OR FOG.


PAZ043-044-047-054-055-060>062-066>071-201200-
EASTERN PENNSYLVANIA
  
CITY           SKY/WX    TMP DP  RH WIND       PRES   REMARKS
PHILADELPHIA   CLOUDY    70  68  93 E7        29.63F                  
NORTH PHILA    CLOUDY    71  67  87 E5        29.65F                  
BLUE BELL*     FAIR      70  69  98 NE3       29.65S                  
DOYLESTOWN     LGT RAIN  68  66  93 N5        29.65S                  
QUAKERTOWN*    CLOUDY    68  68 100 CALM      29.65                   
PERKASIE*      CLOUDY    66  66 100 E5        29.67S                  
POTTSTOWN      CLOUDY    69  69 100 NE6       29.65F                  
LANCASTER      CLOUDY    73  73 100 SE6       29.62F FOG              
COATESVILLE    CLOUDY    70  70 100 SE6       29.66F                  
WEST CHESTER   CLOUDY    70  68  94 CALM      29.64F FOG              
READING        CLOUDY    71  71 100 CALM      29.62F FOG              
ALLENTOWN      LGT RAIN  69  66  90 E5        29.65F                  
QN CITY/ALNTWN LGT RAIN N/A N/A N/A NE5       29.65F                  
MOUNT POCONO   FOG       64  64 100 SE5       29.69F VSB 1/4          
HAZLETON       FOG       66  64  94 SE6       29.69F VSB 1/4          
LEHIGHTON      CLOUDY    68  68 100 CALM      29.66R                  
WILKES BARRE   FAIR      70  67  90 CALM      29.63F                  

$$

SKY/WX - Weather  TMP - Temperature  DP - Dew Point  RH - Relative Humidity
WIND - Wind Direction/Speed PRES - Barometric Pressure VSB - Visibility
WCI - Wind Chill Index E13G22 Wind - East Wind 13 mph/Gusts of 22 mph